Weather History for KNKX - November, 2013

Change the Weather History Date:

Wednesday, November 6, 2013

  Actual Average Record
Temperature  
Mean Temperature 62 °F -  
Max Temperature 77 °F 68 °F 90 °F (2006)
Min Temperature 48 °F 48 °F 45 °F (1996)
Degree Days  
Heating Degree Days 2    
Growing Degree Days 12 (Base 50)    
Moisture  
Dew Point 21 °F    
Average Humidity 25    
Maximum Humidity 46    
Minimum Humidity 7    
Precipitation  
Precipitation 0.00 in - - ()
Sea Level Pressure  
Sea Level Pressure 30.13 in    
Wind  
Wind Speed 7 mph (NNE)    
Max Wind Speed 9 mph    
Max Gust Speed -    
Visibility 10 miles    
Events      
Averages and records for this station are not official NWS values.
T = Trace of Precipitation, MM = Missing Value Source: NWS Daily Summary

Daily Weather History Graph

Daily Weather History Graph

Search for Another Location

Airport or City:

Trip Planner

Search our weather history database for the weather conditions in past years. The results will help you decide how hot, cold, wet, or windy it might be!

Date:

Astronomy

Nov. 06, 2013 Rise Set
Actual Time 6:11 AM PST 4:52 PM PST
Civil Twilight 5:45 AM PST 5:18 PM PST
Nautical Twilight 5:15 AM PST 5:48 PM PST
Astronomical Twilight 4:46 AM PST 6:17 PM PST
Moon 9:26 AM PST (11/6) 8:06 PM PST (11/6)
Length of Visible Light 11h 33m
Length of Day
10h 41m
Waxing Crescent, 14% of the Moon is Illuminated
Nov 6
Waxing Crescent
Nov 9
First Quarter
Nov 17
Full
Nov 25
Last Quarter
Dec 2
New

Hourly Weather History & Observations

Time (PST) Temp. Dew Point Humidity Pressure Visibility Wind Dir Wind Speed Gust Speed Precip Events Conditions
12:55 AM 51.1 °F 30.9 °F 46% 30.12 in 10.0 mi East 9.2 mph - N/A   Clear
1:55 AM 50.0 °F 27.0 °F 41% 30.12 in 10.0 mi NE 6.9 mph - N/A   Clear
2:55 AM 48.0 °F 23.0 °F 37% 30.13 in 10.0 mi ENE 6.9 mph - N/A   Clear
3:55 AM 48.0 °F 24.1 °F 39% 30.13 in 10.0 mi East 8.1 mph - N/A   Clear
4:55 AM 48.0 °F 21.9 °F 36% 30.13 in 10.0 mi East 5.8 mph - N/A   Clear
5:55 AM 48.0 °F 19.9 °F 33% 30.14 in 10.0 mi East 8.1 mph - N/A   Clear
6:55 AM 53.1 °F 19.9 °F 27% 30.15 in 10.0 mi ESE 3.5 mph - N/A   Clear
7:55 AM 64.0 °F 19.0 °F 18% 30.17 in 10.0 mi East 3.5 mph - N/A   Clear
8:55 AM 71.1 °F 10.9 °F 10% 30.18 in 10.0 mi North 3.5 mph - N/A   Clear
9:55 AM 75.0 °F 10.0 °F 8% 30.17 in 10.0 mi North 4.6 mph - N/A   Clear
10:55 AM 77.0 °F 10.9 °F 8% 30.16 in 10.0 mi Variable 3.5 mph - N/A   Clear
11:55 AM 77.0 °F 10.0 °F 8% 30.14 in 10.0 mi WNW 8.1 mph - N/A   Clear
12:55 PM 77.0 °F 9.0 °F 7% 30.13 in 7.0 mi NW 9.2 mph - N/A   Partly Cloudy
1:55 PM 75.0 °F 37.0 °F 25% 30.12 in 10.0 mi WNW 8.1 mph - N/A   Partly Cloudy
2:55 PM 73.9 °F 39.9 °F 29% 30.11 in 10.0 mi NW 9.2 mph - N/A   Scattered Clouds
3:55 PM 70.0 °F 28.9 °F 22% 30.11 in 10.0 mi NW 8.1 mph - N/A   Scattered Clouds
4:55 PM 66.0 °F 36.0 °F 33% 30.11 in 10.0 mi NNW 5.8 mph - N/A   Scattered Clouds
5:55 PM 64.0 °F 18.0 °F 17% 30.12 in 10.0 mi NNW 6.9 mph - N/A   Partly Cloudy
6:55 PM 63.0 °F 17.1 °F 17% 30.13 in 10.0 mi North 4.6 mph - N/A   Clear
7:55 PM 52.0 °F 27.0 °F 38% 30.13 in 10.0 mi ENE 4.6 mph - N/A   Clear
8:55 PM 50.0 °F 23.0 °F 35% 30.12 in 10.0 mi ENE 6.9 mph - N/A   Clear
9:55 PM 55.0 °F 15.1 °F 21% 30.11 in 10.0 mi East 6.9 mph - N/A   Clear
10:55 PM 57.9 °F 14.0 °F 18% 30.10 in 10.0 mi East 6.9 mph - N/A   Clear
11:55 PM 54.0 °F 15.1 °F 22% 30.08 in 10.0 mi ENE 9.2 mph - N/A   Clear